Time,TemperatureF,DewpointF,PressureIn,WindDirection,WindDirectionDegrees,WindSpeedMPH,WindSpeedGustMPH,Humidity,HourlyPrecipIn,Conditions,Clouds,dailyrainin,SoftwareType,DateUTC
2013-04-14 00:22:00,56.0,50.0,29.88,SSE,150,16.0,-999.0,79,0.00,,,-99.99,,2013-04-14 07:22:00,
2013-04-14 00:32:00,56.0,50.0,29.88,SSE,150,16.0,-999.0,79,0.00,,,-99.99,,2013-04-14 07:32:00,
2013-04-14 00:42:00,56.0,50.0,29.88,SSE,150,16.0,-999.0,79,0.00,,,-99.99,,2013-04-14 07:42:00,
2013-04-14 01:22:00,56.0,49.0,29.88,SE,140,10.0,-999.0,76,0.00,,,-99.99,,2013-04-14 08:22:00,
2013-04-14 01:32:00,56.0,49.0,29.88,SE,140,10.0,-999.0,76,0.00,,,-99.99,,2013-04-14 08:32:00,
2013-04-14 01:42:00,56.0,49.0,29.88,SE,140,10.0,-999.0,76,0.00,,,-99.99,,2013-04-14 08:42:00,
2013-04-14 02:22:00,56.0,50.0,29.87,SSE,150,14.0,-999.0,79,0.00,,,-99.99,,2013-04-14 09:22:00,
2013-04-14 02:32:00,56.0,50.0,29.87,SSE,150,14.0,-999.0,79,0.00,,,-99.99,,2013-04-14 09:32:00,
2013-04-14 02:42:00,56.0,50.0,29.87,SSE,150,14.0,-999.0,79,0.00,,,-99.99,,2013-04-14 09:42:00,
2013-04-14 03:22:00,56.0,50.0,29.85,ESE,110,9.0,-999.0,79,0.00,,,-99.99,,2013-04-14 10:22:00,
2013-04-14 03:32:00,56.0,50.0,29.85,ESE,110,9.0,-999.0,79,0.00,,,-99.99,,2013-04-14 10:32:00,
2013-04-14 03:42:00,56.0,50.0,29.85,ESE,110,9.0,-999.0,79,0.00,,,-99.99,,2013-04-14 10:42:00,
2013-04-14 04:22:00,56.0,50.0,29.85,SSE,150,10.0,-999.0,79,0.00,,,-99.99,,2013-04-14 11:22:00,
2013-04-14 04:32:00,56.0,50.0,29.85,SSE,150,10.0,-999.0,79,0.00,,,-99.99,,2013-04-14 11:32:00,
2013-04-14 04:42:00,56.0,50.0,29.85,SSE,150,10.0,-999.0,79,0.00,,,-99.99,,2013-04-14 11:42:00,
2013-04-14 05:21:00,56.0,51.0,29.83,South,170,14.0,-999.0,82,0.00,,,-99.99,,2013-04-14 12:21:00,
2013-04-14 05:32:00,56.0,51.0,29.83,South,170,14.0,-999.0,82,0.00,,,-99.99,,2013-04-14 12:32:00,
2013-04-14 05:42:00,56.0,51.0,29.83,South,170,14.0,-999.0,82,0.00,,,-99.99,,2013-04-14 12:42:00,
2013-04-14 06:22:00,54.0,49.0,29.83,East,90,6.0,-999.0,84,0.00,,,-99.99,,2013-04-14 13:22:00,
2013-04-14 06:32:00,54.0,49.0,29.83,East,90,6.0,-999.0,84,0.00,,,-99.99,,2013-04-14 13:32:00,
2013-04-14 06:42:00,54.0,49.0,29.83,East,90,6.0,-999.0,84,0.00,,,-99.99,,2013-04-14 13:42:00,
2013-04-14 07:22:00,54.0,49.0,29.84,East,100,7.0,-999.0,84,0.00,,,-99.99,,2013-04-14 14:22:00,
2013-04-14 07:32:00,54.0,49.0,29.84,East,100,7.0,-999.0,84,0.00,,,-99.99,,2013-04-14 14:32:00,
2013-04-14 07:42:00,54.0,49.0,29.84,East,100,7.0,-999.0,84,0.00,,,-99.99,,2013-04-14 14:42:00,
2013-04-14 08:22:00,55.0,50.0,29.85,East,90,5.0,-999.0,82,0.00,,,-99.99,,2013-04-14 15:22:00,
2013-04-14 08:33:00,55.0,50.0,29.85,East,90,5.0,-999.0,82,0.00,,,-99.99,,2013-04-14 15:33:00,
2013-04-14 08:43:00,55.0,50.0,29.85,East,90,5.0,-999.0,82,0.00,,,-99.99,,2013-04-14 15:43:00,
2013-04-14 09:22:00,55.0,50.0,29.85,SSE,150,12.0,-999.0,82,0.00,,,-99.99,,2013-04-14 16:22:00,
2013-04-14 09:32:00,55.0,50.0,29.85,SSE,150,12.0,-999.0,82,0.00,,,-99.99,,2013-04-14 16:32:00,
2013-04-14 09:43:00,55.0,50.0,29.85,SSE,150,12.0,-999.0,82,0.00,,,-99.99,,2013-04-14 16:43:00,
2013-04-14 10:22:00,55.0,51.0,29.87,SE,140,8.0,-999.0,86,0.00,,,-99.99,,2013-04-14 17:22:00,
2013-04-14 10:32:00,55.0,51.0,29.87,SE,140,8.0,-999.0,86,0.00,,,-99.99,,2013-04-14 17:32:00,
2013-04-14 10:42:00,55.0,51.0,29.87,SE,140,8.0,-999.0,86,0.00,,,-99.99,,2013-04-14 17:42:00,
2013-04-14 11:22:00,55.0,52.0,29.87,SE,140,8.0,-999.0,88,0.00,,,-99.99,,2013-04-14 18:22:00,
2013-04-14 11:32:00,55.0,52.0,29.87,SE,140,8.0,-999.0,88,0.00,,,-99.99,,2013-04-14 18:32:00,
2013-04-14 11:42:00,55.0,52.0,29.87,SE,140,8.0,-999.0,88,0.00,,,-99.99,,2013-04-14 18:42:00,
2013-04-14 12:22:00,55.0,52.0,29.86,SSE,150,19.0,-999.0,89,0.00,,,-99.99,,2013-04-14 19:22:00,
2013-04-14 12:32:00,55.0,52.0,29.86,SSE,150,19.0,-999.0,89,0.00,,,-99.99,,2013-04-14 19:32:00,
2013-04-14 12:42:00,55.0,52.0,29.86,SSE,150,19.0,-999.0,89,0.00,,,-99.99,,2013-04-14 19:42:00,
2013-04-14 13:22:00,55.0,52.0,29.85,South,170,9.0,-999.0,91,0.00,,,-99.99,,2013-04-14 20:22:00,
2013-04-14 13:32:00,55.0,52.0,29.85,South,170,9.0,-999.0,91,0.00,,,-99.99,,2013-04-14 20:32:00,
2013-04-14 13:42:00,55.0,52.0,29.85,South,170,9.0,-999.0,91,0.00,,,-99.99,,2013-04-14 20:42:00,
2013-04-14 14:22:00,55.0,52.0,29.84,South,170,10.0,-999.0,89,0.00,,,-99.99,,2013-04-14 21:22:00,
2013-04-14 14:33:00,55.0,52.0,29.84,South,170,10.0,-999.0,89,0.00,,,-99.99,,2013-04-14 21:33:00,
2013-04-14 14:43:00,55.0,52.0,29.84,South,170,10.0,-999.0,89,0.00,,,-99.99,,2013-04-14 21:43:00,
2013-04-14 15:23:00,56.0,52.0,29.84,South,170,12.0,-999.0,86,0.00,,,-99.99,,2013-04-14 22:23:00,
2013-04-14 15:32:00,56.0,52.0,29.84,South,170,12.0,-999.0,86,0.00,,,-99.99,,2013-04-14 22:32:00,
2013-04-14 15:43:00,56.0,52.0,29.84,South,170,12.0,-999.0,86,0.00,,,-99.99,,2013-04-14 22:43:00,
2013-04-14 16:22:00,57.0,52.0,29.82,SSE,150,13.0,-999.0,83,0.00,,,-99.99,,2013-04-14 23:22:00,
2013-04-14 16:32:00,57.0,52.0,29.82,SSE,150,13.0,-999.0,83,0.00,,,-99.99,,2013-04-14 23:32:00,
2013-04-14 16:42:00,57.0,52.0,29.82,SSE,150,13.0,-999.0,83,0.00,,,-99.99,,2013-04-14 23:42:00,
2013-04-14 17:22:00,57.0,52.0,29.82,SSE,160,14.0,-999.0,83,0.00,,,-99.99,,2013-04-15 00:22:00,
2013-04-14 17:32:00,57.0,52.0,29.82,SSE,160,14.0,-999.0,83,0.00,,,-99.99,,2013-04-15 00:32:00,
2013-04-14 17:42:00,57.0,52.0,29.82,SSE,160,14.0,-999.0,83,0.00,,,-99.99,,2013-04-15 00:42:00,
2013-04-14 18:23:00,56.0,52.0,29.83,South,180,8.0,-999.0,85,0.00,,,-99.99,,2013-04-15 01:23:00,
2013-04-14 18:32:00,56.0,52.0,29.83,South,180,8.0,-999.0,85,0.00,,,-99.99,,2013-04-15 01:32:00,
2013-04-14 18:42:00,56.0,52.0,29.83,South,180,8.0,-999.0,85,0.00,,,-99.99,,2013-04-15 01:42:00,
2013-04-14 19:22:00,56.0,51.0,29.83,SSE,150,10.0,-999.0,83,0.00,,,-99.99,,2013-04-15 02:22:00,
2013-04-14 19:32:00,56.0,51.0,29.83,SSE,150,10.0,-999.0,83,0.00,,,-99.99,,2013-04-15 02:32:00,
2013-04-14 19:42:00,56.0,51.0,29.83,SSE,150,10.0,-999.0,83,0.00,,,-99.99,,2013-04-15 02:42:00,
2013-04-14 20:22:00,57.0,51.0,29.84,South,180,9.0,-999.0,80,0.00,,,-99.99,,2013-04-15 03:22:00,
2013-04-14 20:32:00,57.0,51.0,29.84,South,180,9.0,-999.0,80,0.00,,,-99.99,,2013-04-15 03:32:00,
2013-04-14 20:43:00,57.0,51.0,29.84,South,180,9.0,-999.0,80,0.00,,,-99.99,,2013-04-15 03:43:00,
2013-04-14 21:22:00,57.0,50.0,29.85,South,170,10.0,-999.0,78,0.00,,,-99.99,,2013-04-15 04:22:00,
2013-04-14 21:33:00,57.0,50.0,29.85,South,170,10.0,-999.0,78,0.00,,,-99.99,,2013-04-15 04:33:00,
2013-04-14 21:42:00,57.0,50.0,29.85,South,170,10.0,-999.0,78,0.00,,,-99.99,,2013-04-15 04:42:00,
2013-04-14 22:23:00,57.0,50.0,29.86,South,170,10.0,-999.0,78,0.00,,,-99.99,,2013-04-15 05:23:00,
2013-04-14 22:32:00,57.0,50.0,29.86,South,170,10.0,-999.0,78,0.00,,,-99.99,,2013-04-15 05:32:00,
2013-04-14 22:42:00,57.0,50.0,29.86,South,170,10.0,-999.0,78,0.00,,,-99.99,,2013-04-15 05:42:00,
2013-04-14 23:22:00,57.0,50.0,29.87,SSE,150,11.0,-999.0,78,0.00,,,-99.99,,2013-04-15 06:22:00,
2013-04-14 23:33:00,57.0,50.0,29.87,SSE,150,11.0,-999.0,78,0.00,,,-99.99,,2013-04-15 06:33:00,
2013-04-14 23:42:00,57.0,50.0,29.87,SSE,150,11.0,-999.0,78,0.00,,,-99.99,,2013-04-15 06:42:00,